| time (UTC) | temp F | wind direction | speed MPH | gust MPH | rain 1hr in | rain 24hr in | rain mn in | humidity % | barometer mb |
| 20260505230009 | 51 | 23 | 1.0 | 3.0 | 0.00 | 1.55 | 1.55 | 81 | 1008.5 |
| 20260505225003 | 51 | 23 | 2.0 | 4.0 | 0.00 | 1.55 | 1.55 | 81 | 1008.6 |
| 20260505224003 | 51 | 23 | 2.0 | 4.0 | 0.00 | 1.55 | 1.55 | 82 | 1008.4 |
| 20260505223003 | 51 | 68 | 1.0 | 2.0 | 0.00 | 1.55 | 1.55 | 81 | 1008.3 |
| 20260505222003 | 51 | 23 | 2.0 | 3.0 | 0.00 | 1.55 | 1.55 | 81 | 1008.5 |
| 20260505221003 | 51 | 23 | 3.0 | 4.0 | 0.00 | 1.55 | 1.55 | 81 | 1008.6 |
| 20260505220005 | 51 | 23 | 5.0 | 7.0 | 0.00 | 1.55 | 1.55 | 82 | 1008.4 |
| 20260505215003 | 51 | 45 | 4.0 | 5.0 | 0.00 | 1.55 | 1.55 | 82 | 1008.4 |
| 20260505214003 | 51 | 0 | 4.0 | 5.0 | 0.00 | 1.55 | 1.55 | 83 | 1008.5 |
| 20260505213003 | 51 | 23 | 3.0 | 4.0 | 0.00 | 1.55 | 1.55 | 84 | 1008.6 |
| 20260505212003 | 51 | 45 | 3.0 | 5.0 | 0.00 | 1.55 | 1.55 | 86 | 1008.3 |
| 20260505211003 | 50 | 45 | 2.0 | 4.0 | 0.00 | 1.55 | 1.55 | 85 | 1008.5 |
| 20260505210004 | 50 | 45 | 3.0 | 4.0 | 0.01 | 1.55 | 1.55 | 85 | 1008.6 |
| 20260505205004 | 50 | 45 | 3.0 | 5.0 | 0.01 | 1.55 | 1.55 | 85 | 1008.5 |
| 20260505204003 | 49 | 68 | 2.0 | 3.0 | 0.01 | 1.55 | 1.55 | 87 | 1008.4 |
| 20260505203003 | 49 | 0 | 5.0 | 7.0 | 0.01 | 1.55 | 1.55 | 87 | 1008.6 |
| 20260505202004 | 49 | 45 | 1.0 | 2.0 | 0.01 | 1.55 | 1.55 | 87 | 1008.5 |
| 20260505201023 | 48 | 68 | 2.0 | 4.0 | 0.02 | 1.55 | 1.55 | 87 | 1008.4 |
| 20260505200003 | 48 | 68 | 3.0 | 5.0 | 0.02 | 1.54 | 1.54 | 87 | 1008.5 |
| 20260505195043 | 48 | 0.0 | 2.0 | 0.03 | 1.54 | 1.54 | 88 | 1008.5 | |
| 20260505194003 | 47 | 68 | 6.0 | 8.0 | 0.03 | 1.54 | 1.54 | 90 | 1008.2 |
| 20260505193003 | 48 | 90 | 3.0 | 4.0 | 0.03 | 1.54 | 1.54 | 92 | 1008.4 |
| 20260505192003 | 48 | 68 | 1.0 | 2.0 | 0.04 | 1.54 | 1.54 | 92 | 1008.6 |
| 20260505191003 | 47 | 113 | 2.0 | 3.0 | 0.04 | 1.53 | 1.53 | 91 | 1008.6 |
| 20260505190003 | 47 | 90 | 2.0 | 2.0 | 0.03 | 1.52 | 1.52 | 91 | 1008.4 |
| 20260505185003 | 47 | 45 | 2.0 | 4.0 | 0.02 | 1.51 | 1.51 | 91 | 1008.8 |
| 20260505184003 | 47 | 90 | 2.0 | 4.0 | 0.02 | 1.51 | 1.51 | 91 | 1008.8 |
| 20260505183003 | 47 | 90 | 2.0 | 2.0 | 0.02 | 1.51 | 1.51 | 91 | 1008.9 |
| 20260505182003 | 47 | 90 | 3.0 | 6.0 | 0.01 | 1.50 | 1.50 | 90 | 1009.3 |
| 20260505181002 | 47 | 90 | 3.0 | 5.0 | 0.01 | 1.49 | 1.49 | 90 | 1009.6 |
| 20260505180004 | 47 | 68 | 3.0 | 5.0 | 0.03 | 1.49 | 1.49 | 90 | 1009.5 |
| 20260505175003 | 47 | 68 | 6.0 | 10.0 | 0.04 | 1.49 | 1.49 | 91 | 1009.8 |
| 20260505174003 | 47 | 68 | 3.0 | 5.0 | 0.10 | 1.49 | 1.49 | 91 | 1009.8 |
| 20260505173003 | 47 | 90 | 2.0 | 4.0 | 0.14 | 1.49 | 1.49 | 91 | 1009.7 |
| 20260505172003 | 47 | 68 | 3.0 | 5.0 | 0.18 | 1.49 | 1.49 | 91 | 1009.5 |
| 20260505171002 | 46 | 90 | 8.0 | 11.0 | 0.20 | 1.48 | 1.48 | 90 | 1009.1 |
| 20260505170008 | 46 | 90 | 5.0 | 7.0 | 0.18 | 1.46 | 1.46 | 89 | 1009.5 |
| 20260505165002 | 46 | 68 | 9.0 | 12.0 | 0.17 | 1.45 | 1.45 | 89 | 1009.6 |
| 20260505164002 | 46 | 45 | 6.0 | 10.0 | 0.12 | 1.39 | 1.39 | 89 | 1009.4 |
| 20260505163003 | 47 | 45 | 4.0 | 5.0 | 0.08 | 1.35 | 1.35 | 89 | 1009.3 |
| 20260505162003 | 47 | 68 | 5.0 | 11.0 | 0.04 | 1.31 | 1.31 | 88 | 1009.5 |
| 20260505161002 | 48 | 45 | 7.0 | 9.0 | 0.01 | 1.28 | 1.28 | 88 | 1009.8 |
| 20260505153002 | 48 | 45 | 6.0 | 10.0 | 0.03 | 1.27 | 1.27 | 88 | 1009.3 |
| 20260505152023 | 48 | 45 | 3.0 | 5.0 | 0.05 | 1.27 | 1.27 | 88 | 1009.2 |
| 20260505151003 | 48 | 23 | 6.0 | 9.0 | 0.06 | 1.27 | 1.27 | 88 | 1008.8 |
| 20260505125002 | 49 | 45 | 5.0 | 9.0 | 0.01 | 1.14 | 1.14 | 81 | 1006.8 |
| 20260505124022 | 49 | 45 | 5.0 | 10.0 | 0.01 | 1.14 | 1.14 | 81 | 1006.6 |
| 20260505123002 | 49 | 68 | 6.0 | 12.0 | 0.01 | 1.14 | 1.14 | 81 | 1006.1 |
| 20260505122002 | 50 | 68 | 7.0 | 11.0 | 0.00 | 1.13 | 1.13 | 81 | 1006.8 |
| 20260505121125 | 49 | 45 | 3.0 | 5.0 | 0.00 | 1.13 | 1.13 | 82 | 1007.1 |
| 20260505120005 | 49 | 68 | 8.0 | 12.0 | 0.00 | 1.13 | 1.13 | 84 | 1006.6 |
| 20260505115004 | 49 | 45 | 5.0 | 8.0 | 0.00 | 1.13 | 1.13 | 85 | 1006.4 |
| 20260505114024 | 49 | 45 | 4.0 | 6.0 | 0.00 | 1.13 | 1.13 | 85 | 1006.5 |
| 20260505113004 | 49 | 68 | 6.0 | 10.0 | 0.00 | 1.13 | 1.13 | 85 | 1006.2 |
| 20260505112004 | 49 | 68 | 2.0 | 4.0 | 0.00 | 1.13 | 1.13 | 84 | 1006.6 |
| 20260505111004 | 49 | 68 | 3.0 | 5.0 | 0.00 | 1.13 | 1.13 | 83 | 1006.4 |
| 20260505102004 | 50 | 45 | 9.0 | 15.0 | 0.00 | 1.13 | 1.13 | 79 | 1006.0 |
| 20260505101004 | 50 | 45 | 11.0 | 17.0 | 0.00 | 1.13 | 1.13 | 79 | 1006.0 |
| 20260505100004 | 50 | 45 | 9.0 | 12.0 | 0.00 | 1.13 | 1.13 | 79 | 1005.9 |
| 20260505095024 | 50 | 45 | 8.0 | 12.0 | 0.00 | 1.13 | 1.13 | 80 | 1005.9 |
| 20260505094003 | 50 | 23 | 7.0 | 11.0 | 0.00 | 1.13 | 1.13 | 80 | 1005.6 |
| 20260505093004 | 50 | 45 | 9.0 | 12.0 | 0.00 | 1.13 | 1.13 | 80 | 1005.7 |
| 20260505092003 | 50 | 45 | 10.0 | 13.0 | 0.00 | 1.13 | 1.13 | 82 | 1005.3 |
| 20260505091023 | 49 | 45 | 9.0 | 14.0 | 0.00 | 1.13 | 1.13 | 83 | 1005.1 |
| 20260505090008 | 49 | 23 | 8.0 | 15.0 | 0.04 | 1.13 | 1.13 | 83 | 1005.0 |
| 20260505085003 | 49 | 45 | 7.0 | 9.0 | 0.12 | 1.13 | 1.13 | 84 | 1004.6 |
| 20260505084003 | 49 | 23 | 10.0 | 15.0 | 0.18 | 1.13 | 1.13 | 85 | 1004.2 |
| 20260505083004 | 49 | 0 | 13.0 | 20.0 | 0.21 | 1.13 | 1.13 | 86 | 1003.4 |
| 20260505082023 | 49 | 45 | 11.0 | 16.0 | 0.26 | 1.13 | 1.13 | 86 | 1002.1 |
| 20260505081003 | 50 | 45 | 12.0 | 18.0 | 0.30 | 1.13 | 1.13 | 86 | 1001.5 |
| 20260505080005 | 51 | 45 | 12.0 | 20.0 | 0.26 | 1.08 | 1.08 | 85 | 1004.0 |
| 20260505075003 | 52 | 68 | 7.0 | 11.0 | 0.20 | 1.00 | 1.00 | 83 | 1005.2 |
| 20260505074003 | 53 | 0 | 8.0 | 10.0 | 0.16 | 0.94 | 0.94 | 82 | 1006.3 |
| 20260505073004 | 53 | 338 | 9.0 | 14.0 | 0.22 | 0.91 | 0.91 | 83 | 1006.6 |
| 20260505072004 | 54 | 315 | 10.0 | 13.0 | 0.42 | 0.86 | 0.86 | 81 | 1006.3 |
| 20260505071004 | 55 | 0 | 9.0 | 11.0 | 0.63 | 0.83 | 0.83 | 81 | 1005.3 |
| 20260505070005 | 55 | 23 | 5.0 | 8.0 | 0.75 | 0.81 | 0.81 | 83 | 1004.5 |
| 20260505065003 | 55 | 0 | 7.0 | 10.0 | 0.80 | 0.80 | 0.80 | 86 | 1004.1 |
| 20260505064003 | 56 | 0 | 5.0 | 8.0 | 0.77 | 0.77 | 0.77 | 84 | 1004.2 |
| 20260505063003 | 56 | 23 | 6.0 | 8.0 | 0.68 | 0.68 | 0.68 | 84 | 1004.3 |
| 20260505062003 | 57 | 0 | 11.0 | 15.0 | 0.42 | 0.42 | 0.42 | 80 | 1003.5 |
| 20260505061028 | 59 | 23 | 12.0 | 17.0 | 0.18 | 0.18 | 0.18 | 75 | 1003.4 |
| 20260505060004 | 63 | 0 | 10.0 | 15.0 | 0.03 | 0.03 | 0.03 | 68 | 1002.9 |
| 20260505055003 | 66 | 23 | 10.0 | 21.0 | 0.00 | 0.00 | 0.00 | 63 | 1002.4 |
| 20260505054003 | 68 | 23 | 14.0 | 19.0 | 0.00 | 0.00 | 0.00 | 56 | 1002.2 |
| 20260505053004 | 69 | 0 | 14.0 | 17.0 | 0.00 | 0.00 | 0.00 | 55 | 1001.9 |
| 20260505052003 | 69 | 23 | 11.0 | 16.0 | 0.00 | 0.00 | 0.00 | 70 | 1001.7 |
| 20260505051003 | 69 | 338 | 11.0 | 14.0 | 0.00 | 0.00 | 0.00 | 75 | 1001.6 |
| 20260505041004 | 70 | 203 | 7.0 | 9.0 | 0.00 | 0.00 | 0.00 | 75 | 1001.0 |
| 20260505040009 | 70 | 203 | 6.0 | 9.0 | 0.00 | 0.00 | 0.00 | 75 | 1001.2 |
| 20260505035024 | 70 | 180 | 4.0 | 7.0 | 0.00 | 0.00 | 0.00 | 75 | 1001.1 |
| 20260505034003 | 70 | 158 | 2.0 | 7.0 | 0.00 | 0.00 | 0.00 | 75 | 1001.1 |
| 20260505033004 | 71 | 180 | 4.0 | 7.0 | 0.00 | 0.00 | 0.00 | 75 | 1001.2 |
| 20260505032003 | 71 | 203 | 6.0 | 8.0 | 0.00 | 0.00 | 0.00 | 75 | 1001.0 |
| 20260505031003 | 71 | 203 | 3.0 | 5.0 | 0.00 | 0.00 | 0.00 | 74 | 1000.8 |
| 20260505030009 | 71 | 180 | 3.0 | 7.0 | 0.00 | 0.00 | 0.00 | 74 | 1000.9 |
| 20260505025004 | 72 | 180 | 4.0 | 6.0 | 0.00 | 0.00 | 0.00 | 72 | 1000.7 |
| 20260505024105 | 72 | 203 | 2.0 | 3.0 | 0.00 | 0.00 | 0.00 | 71 | 1000.5 |
| 20260505023025 | 72 | 180 | 4.0 | 6.0 | 0.00 | 0.00 | 0.00 | 70 | 1000.4 |
| 20260505022004 | 72 | 180 | 3.0 | 5.0 | 0.00 | 0.00 | 0.00 | 70 | 1000.2 |
| 20260505021005 | 72 | 203 | 2.0 | 3.0 | 0.00 | 0.00 | 0.00 | 69 | 1000.2 |
| 20260505020004 | 73 | 0.0 | 2.0 | 0.00 | 0.00 | 0.00 | 67 | 1000.1 | |
| 20260505015004 | 74 | 248 | 2.0 | 3.0 | 0.00 | 0.00 | 0.00 | 67 | 1000.0 |
| 20260505014003 | 74 | 225 | 1.0 | 2.0 | 0.00 | 0.00 | 0.00 | 65 | 999.7 |
| 20260505013004 | 74 | 248 | 1.0 | 1.0 | 0.00 | 0.00 | 0.00 | 65 | 999.6 |
| 20260505012003 | 74 | 248 | 1.0 | 3.0 | 0.00 | 0.00 | 0.00 | 65 | 999.5 |
| 20260505011003 | 74 | 270 | 1.0 | 2.0 | 0.00 | 0.00 | 0.00 | 65 | 999.3 |
| 20260505010004 | 75 | 248 | 2.0 | 2.0 | 0.00 | 0.00 | 0.00 | 65 | 999.3 |
| 20260505005023 | 76 | 248 | 2.0 | 3.0 | 0.00 | 0.00 | 0.00 | 62 | 999.2 |
| 20260505004004 | 77 | 0.0 | 1.0 | 0.00 | 0.00 | 0.00 | 62 | 999.0 | |
| 20260505003004 | 78 | 0.0 | 1.0 | 0.00 | 0.00 | 0.00 | 60 | 998.9 | |
| 20260505002023 | 78 | 225 | 1.0 | 2.0 | 0.00 | 0.00 | 0.00 | 61 | 998.9 |
| 20260505001023 | 78 | 248 | 2.0 | 4.0 | 0.00 | 0.00 | 0.00 | 60 | 999.0 |
| 20260505000004 | 78 | 248 | 1.0 | 2.0 | 0.00 | 0.00 | 0.00 | 56 | 999.1 |
| 20260504235003 | 78 | 270 | 2.0 | 3.0 | 0.00 | 0.00 | 0.00 | 59 | 999.1 |
| 20260504234003 | 79 | 248 | 2.0 | 3.0 | 0.00 | 0.00 | 0.00 | 55 | 999.0 |
| 20260504233003 | 79 | 248 | 2.0 | 3.0 | 0.00 | 0.00 | 0.00 | 54 | 999.1 |
| 20260504232003 | 80 | 248 | 5.0 | 7.0 | 0.00 | 0.00 | 0.00 | 53 | 999.3 |
| 20260504231003 | 80 | 225 | 3.0 | 7.0 | 0.00 | 0.00 | 0.00 | 52 | 999.2 |